Grand Rapids, MI

9:32 AM EST on February 13, 2016 (GMT -0500)
Gerald R. Ford International

Weather History for KGRR - May, 2014

Change the Weather History Date:

Friday, May 9, 2014

  Actual Average Record
Temperature  
Mean Temperature 65 °F 56 °F  
Max Temperature 76 °F 67 °F 88 °F (1930)
Min Temperature 54 °F 46 °F 23 °F (1947)
Degree Days  
Heating Degree Days 0 9  
Month to date heating degree days 106 94  
Since 1 July heating degree days 7087 6299  
Cooling Degree Days 0 1  
Month to date cooling degree days 4 5  
Year to date cooling degree days 6 13  
Growing Degree Days 16 (Base 50)    
Moisture  
Dew Point 58 °F    
Average Humidity 73    
Maximum Humidity 93    
Minimum Humidity 52    
Precipitation  
Precipitation 0.15 in 0.13 in 4.10 in (1956)
Month to date precipitation 1.77 1.12  
Year to date precipitation 11.73 10.72  
Snow  
Snow 0.00 in 0.00 in 5.50 in (1923)
Month to date snowfall 0.0 0.0  
Since 1 July snowfall 116.0 74.9  
Snow Depth 0.00 in    
Sea Level Pressure  
Sea Level Pressure 29.74 in    
Wind  
Wind Speed 15 mph (SW)    
Max Wind Speed 31 mph    
Max Gust Speed 39 mph    
Visibility 9 miles    
Events Rain , Thunderstorm    
T = Trace of Precipitation, MM = Missing Value Source: NWS Daily Summary

Daily Weather History Graph

Daily Weather History Graph

Search for Another Location

Airport or City:

Trip Planner

Search our weather history database for the weather conditions in past years. The results will help you decide how hot, cold, wet, or windy it might be!

Date:

Astronomy

May. 09, 2014 Rise Set
Actual Time 6:25 AM EDT 8:51 PM EDT
Civil Twilight 5:54 AM EDT 9:23 PM EDT
Nautical Twilight 5:14 AM EDT 10:03 PM EDT
Astronomical Twilight 4:30 AM EDT 10:48 PM EDT
Moon 3:41 PM EDT (5/9) 3:35 AM EDT (5/9)
Length of Visible Light 15h 29m
Length of Day
14h 25m
Waxing Gibbous, 73% of the Moon is Illuminated
May 9
Waxing Gibbous
May 14
Full
May 21
Last Quarter
May 28
New
Jun 5
First Quarter

Hourly Weather History & Observations

Time (EDT) Temp. Dew Point Humidity Pressure Visibility Wind Dir Wind Speed Gust Speed Precip Events Conditions
12:53 AM 73.9 °F 59.0 °F 59% 29.82 in 10.0 mi South 8.1 mph - N/A   Clear
1:53 AM 75.0 °F 57.9 °F 55% 29.80 in 10.0 mi South 9.2 mph - N/A   Clear
2:53 AM 75.0 °F 59.0 °F 57% 29.78 in 10.0 mi South 11.5 mph - N/A   Clear
3:53 AM 75.0 °F 60.1 °F 60% 29.76 in 10.0 mi SSW 12.7 mph - N/A   Overcast
4:53 AM 73.4 °F 60.8 °F 65% 29.77 in 10.0 mi SSW 12.7 mph - N/A   Mostly Cloudy
5:17 AM 69.1 °F 61.0 °F 75% 29.81 in 7.0 mi West 27.6 mph 34.5 mph 0.00 in Rain , Thunderstorm Light Thunderstorms and Rain
5:38 AM 64.9 °F 62.1 °F 90% 29.82 in 6.0 mi SW 17.3 mph 24.2 mph 0.04 in Rain Light Rain
5:53 AM 64.9 °F 62.1 °F 90% 29.80 in 9.0 mi SW 15.0 mph - 0.05 in Rain Light Rain
6:40 AM 64.9 °F 62.1 °F 90% 29.80 in 10.0 mi SSW 13.8 mph 24.2 mph 0.02 in Rain Light Rain
6:53 AM 64.9 °F 62.1 °F 90% 29.78 in 8.0 mi SSW 12.7 mph - 0.02 in Rain Light Rain
7:10 AM 64.9 °F 62.1 °F 90% 29.79 in 10.0 mi SSW 10.4 mph - 0.00 in Rain Light Rain
7:53 AM 64.4 °F 62.6 °F 94% 29.78 in 10.0 mi SSW 9.2 mph - N/A Rain Light Rain
8:53 AM 66.0 °F 63.0 °F 90% 29.77 in 10.0 mi SSW 9.2 mph - 0.01 in Rain Light Rain
9:53 AM 66.9 °F 63.0 °F 87% 29.73 in 10.0 mi South 17.3 mph - 0.00 in Rain Light Rain
10:53 AM 69.1 °F 64.0 °F 84% 29.71 in 10.0 mi SSW 19.6 mph 25.3 mph 0.00 in   Overcast
11:53 AM 69.1 °F 61.0 °F 75% 29.72 in 10.0 mi SSW 18.4 mph 26.5 mph 0.00 in   Overcast
12:50 PM 66.2 °F 60.8 °F 83% 29.72 in 1.8 mi SW 25.3 mph 35.7 mph 0.00 in Rain Heavy Rain
12:53 PM 66.0 °F 60.1 °F 81% 29.71 in 1.2 mi SSW 23.0 mph 35.7 mph 0.00 in Rain Heavy Rain
1:02 PM 64.9 °F 61.0 °F 87% 29.72 in 3.0 mi SSW 23.0 mph 35.7 mph 0.08 in Rain Light Rain
1:53 PM 66.9 °F 63.0 °F 87% 29.69 in 10.0 mi SSW 15.0 mph 24.2 mph 0.09 in Rain Light Rain
2:53 PM 72.0 °F 61.0 °F 68% 29.67 in 10.0 mi SW 20.7 mph 32.2 mph 0.00 in   Mostly Cloudy
3:53 PM 73.0 °F 60.1 °F 64% 29.67 in 10.0 mi SW 20.7 mph 31.1 mph N/A   Mostly Cloudy
4:53 PM 75.0 °F 57.9 °F 55% 29.65 in 10.0 mi SW 21.9 mph 29.9 mph N/A   Mostly Cloudy
5:53 PM 75.0 °F 57.9 °F 55% 29.66 in 10.0 mi WSW 21.9 mph 32.2 mph N/A   Mostly Cloudy
6:53 PM 70.0 °F 52.0 °F 53% 29.69 in 10.0 mi West 18.4 mph 29.9 mph N/A   Mostly Cloudy
7:53 PM 66.0 °F 48.0 °F 52% 29.70 in 10.0 mi West 19.6 mph 27.6 mph N/A   Scattered Clouds
8:53 PM 62.1 °F 46.0 °F 56% 29.73 in 10.0 mi West 12.7 mph 24.2 mph N/A   Scattered Clouds
9:53 PM 59.0 °F 45.0 °F 60% 29.76 in 10.0 mi West 15.0 mph - N/A   Partly Cloudy
10:53 PM 57.2 °F 44.6 °F 63% 29.80 in 10.0 mi West 9.2 mph - N/A   Partly Cloudy
11:53 PM 55.9 °F 43.0 °F 62% 29.81 in 10.0 mi West 12.7 mph - N/A   Clear